SL-8 DEB, 21187

Orbit data source: Space-Track

SL-8 DEB, 21187 is space debris in LEO originally from a launch on Tue, 12 Feb 1991 UTC launched from the Plesetsk Missile And Space Complex (PKMTR). Debris objects in space refer to the collection of defunct objects orbiting the Earth. Examples of debris include non-operational satellites, rocket bodies, and fragments generated from explosions, collisions, or faulty payload assembly.

Loading next visibility...
Identifier
21187, 1991-009BA
Orbit
LEO
Country
Flag of CISCIS
Related business
Manufacturer
Unknown
Mission
Spacecraft
Bus & Motor
Unknown
Mass
Unknown
Launch date (UTC)
1991-02-12 (35 years ago)
Launch vehicle
Unknown
Launch site
Plesetsk Missile And Space Complex (PKMTR)
Object type
Payload
Rocket body
Debris
Shape & HBR
Unknown shape, 0.1 m
Radar Cross Section
Medium (>0.1 m² and <1 m²)

Expand to show TLE details & history
Last TLE update: 23 hours ago

TLE from 23 hours ago
0 SL-8 DEB
1 21187U 91009BA  26170.95563728 -.00000335  00000-0 -33896-2 0  9993
2 21187  74.2470 352.4874 0179352  41.8308 110.3083 12.09407228557647
Epoch: 2026-06-19T22:56Z
TLE epoch observation values (Epoch: 2026-06-19T22:56:07.060Z)
Latitude
24.93625°
Longitude
-87.21943°
Altitude
1,693.672 km
Speed
7.008 km/s
True Right ascension
10h 59m 56s
True Declination
24° 49' 13"
Sunlit
Object was in daylight at epoch
Visualization orbit readout
Latitude
Unknown
Longitude
Unknown
Altitude
Unknown
Speed
Unknown
Apparent Right ascension
Unknown
Apparent Declination
Unknown
Sunlit
N/A
Visualization observer readout
Local Sidereal Time
08:46:29
Azimuth
Unknown
Elevation
Unknown
Doppler factor
Unknown
Orbital elements
Apogee altitude
1,780.631 km
Perigee altitude
1,493.129 km
Semi-major axis
8,015.017 km
Eccentricity
0.01794
Inclination
74.247°
RAAN
352.4874°
Arg. of periapsis
41.8308°
True anomaly
112.22053°
Mean anomaly
110.3083°
Eccentric anomaly
111.26594°
Mean motion
3.02473 °/min
Orbital period
119.02 mins
BSTAR
-0.0033896
Loading maneuver chart data...
Computing Atmospheric mass density...
Loading historical data...
Loading historical data...
Loading historical data...
Loading historical data...
Loading historical data...
Loading historical data...
Loading historical data...

Documentation

Showing up to 5 results
|